Regional Weather Roundup
Issued by NWS Wakefield, VA

Home | Current Version | Previous Version | Graphics & Text | Print | Product List | Glossary On
Versions: 1 2 3 4 5 6 7 8 9 10 11 12 13 14 15 16 17 18 19 20 21 22 23 24 25 26 27 28
000
ASUS41 KAKQ 232110
RWRAKQ

REGIONAL WEATHER ROUNDUP
NATIONAL WEATHER SERVICE WAKEFIELD VA
500 PM EDT THU OCT 23 2014

Note: "fair" indicates few or no clouds below 12,000 feet with no
significant weather and/or obstructions to visibility. * = Denotes
station may not report precipitation (e.g., rain,snow,etc.),
thunder or fog.

VAZ042-051-052>054-056-232200-
NORTHERN VIRGINIA

CITY           SKY/WX    TMP DP  RH WIND       PRES   REMARKS
WASH NATIONAL  PTSUNNY   64  43  46 NW20G30   29.86F
DULLES         MOSUNNY   62  43  49 NW16G26   29.88S
FORT BELVOIR   CLOUDY    63  44  51 NW10G22   29.87F
QUANTICO       PTSUNNY   64  43  46 N8G25     29.89R
FREDERICKSBRG* PTSUNNY   65  45  48 NW9G22    29.88S
STAFFORD*      PTSUNNY   64  43  47 NW15G22   29.92S
WARRENTON      SUNNY     65  50  59 NW14      29.89F
CULPEPER*      SUNNY     64  43  45 N15G22    29.91S
MANASSAS*      MOSUNNY   64  45  48 NW15G22   29.88S
LEESBURG*      MOSUNNY   64  48  55 N13G20    29.89F
WINCHESTER     CLOUDY    63  37  39 NW14G21   29.92S
FRONT ROYAL*   PTCLDY    61  43  51 NW9G21    29.92S
LURAY*         CLOUDY    63  45  51 NW8       29.96R
$$

VAZ048-049-060>072-079>083-232200-
CENTRAL AND SOUTH CENTRAL VIRGINIA...AND NORTH CENTRAL NORTH CAROLINA

CITY           SKY/WX    TMP DP  RH WIND       PRES   REMARKS
RICHMOND       MOSUNNY   68  44  42 N17G25    29.87R
CHESTERFIELD*    N/A    N/A N/A N/A MISG        N/A
PETERSBURG*    PTSUNNY   67  42  39 NW14G22   29.88R
HANOVER        MOSUNNY   66  45  46 N8G17     29.89S
TAPPAHANNOCK*  MOSUNNY   66  40  38 NW9G24    29.87R
CHARLOTTSVILLE SUNNY     64  42  44 N13G21    29.92R
ORANGE*        SUNNY     64  45  48 NW15G21   29.92S
LOUISA*        MOSUNNY   66  45  45 N15G22    29.90R
FARMVILLE*     SUNNY     70  41  35 N7        29.89R
CREWE*         CLEAR     67  42  40 NW12G24   29.89S
FORT PICKETT*  CLEAR     67  46  46 NW13      29.89S
LUNENBURG*     CLEAR     69  47  46 NW6       29.89S
SOUTH HILL*    SUNNY     70  46  43 NW6       29.94S
LAWRENCEVILLE* CLEAR     67  47  48 NW7       29.87S
ROANOKE RAPIDS CLEAR     66  46  48 W8        29.88S
RALEIGH        SUNNY     69  44  40 NW8       29.93R
$$

VAZ088>098-232200-
SOUTHEAST VIRGINIA

CITY           SKY/WX    TMP DP  RH WIND       PRES   REMARKS
NORFOLK        PTSUNNY   65  46  50 VRB7      29.84R
VIRGINIA BEACH PTSUNNY   66  47  50 W12G22    29.83R
NORFOLK NAVAL  PTSUNNY   68  47  46 NW17G25   29.86R
WEST POINT*    MOSUNNY   67  44  42 NW8       29.86S
NEWPORT NEWS   SUNNY     67  47  48 N9        29.85R
LANGLEY AFB    MOSUNNY   65  47  53 NW12      29.85R
FORT EUSTIS    PTSUNNY   66  45  47 NW14G24   29.84R
WILLIAMSBURG*  SUNNY     70  48  46 NW12      29.86R
HR EXEC AP*    MOCLDY    64  48  55 NW7       29.87R
FRANKLIN*      MOSUNNY   66  46  48 NW8       29.86R
WAKEFIELD      PTSUNNY   67  47  48 VRB7      29.86S
$$

VAZ020-022-025-037-045-232200-
WEST CENTRAL AND SOUTHWEST VIRGINIA

CITY           SKY/WX    TMP DP  RH WIND       PRES   REMARKS
STAUNTON*      SUNNY     61  39  44 NW10G18   29.98S
HOT SPRINGS VA CLOUDY    43  38  84 NW23G31   30.00S
LYNCHBURG      SUNNY     65  41  41 N8        29.95S
DANVILLE       SUNNY     68  41  37 NW12G20   29.95S
SOUTH BOSTON*  NOT AVBL
MARTINSVILLE   SUNNY     64  41  42 NW7       30.01F
ROANOKE        MOSUNNY   60  40  47 NW18      30.02S
BLACKSBURG     SUNNY     55  45  67 W8        30.07R
DUBLIN*        SUNNY     56  42  59 NW9G16    30.07S
MARION*        PTSUNNY   52  39  62 W7        30.12R
HILLSVILLE*    SUNNY     51  39  63 NW16G22   30.05S
RICHLANDS*     CLOUDY    50  41  71 N6        30.12F
WISE*          SUNNY     52  37  58 N7        30.13F
ABINGDON*      SUNNY     55  41  58 N7        30.10F
$$

MDZ021>025-VAZ099-100-232200-
SOUTHERN MARYLAND AND THE DELMARVA PENINSULA

CITY           SKY/WX    TMP DP  RH WIND       PRES   REMARKS
PATUXENT RIVER CLOUDY    63  46  54 NW23G29   29.82S
BAY BRIDGE APT   N/A     61  45  55 NW15G23   29.81S
LEONARDTOWN    CLOUDY    61  45  55 W7G21     29.84S
DOVER          CLOUDY    57  48  70 NW16      29.77R
GEORGETOWN     CLOUDY    58  46  64 N8        29.79R
EASTON         CLOUDY    63  50  63 NW12      29.84S
CAMBRIDGE      CLOUDY    61  46  59 NW10      29.80S
SALISBURY      CLOUDY    61  47  59 NW9       29.79S
OCEAN CITY     CLOUDY    58  47  66 NW12G23   29.78R
WALLOPS ISLAND CLOUDY    61  48  62 N14       29.80R
ACCOMACK*      CLOUDY    61  45  55 NW14G20   29.81S
$$

NCZ012>017-030>032-232200-
EASTERN NORTH CAROLINA

CITY           SKY/WX    TMP DP  RH WIND       PRES   REMARKS
ELIZABETH CITY MOSUNNY   68  48  48 W17       29.85S
AHOSKIE*       SUNNY     65  47  50 NW6       29.88S
EDENTON*       SUNNY     67  48  51 NW10G22   29.87S
CURRITUCK*     CLOUDY    66  44  46 W13       29.85S
KILL DEVIL HLS PTSUNNY   65  49  55 NW10G17   29.83S
MANTEO         MOSUNNY   64  49  58 W9        29.85S
CAPE HATTERAS  SUNNY     64  50  60 W9        29.85F
TARBORO*       CLEAR     69  47  45 W9        29.90S
GOLDSBORO      SUNNY     69  49  49 NW6       29.89S
WASHINGTON     SUNNY     66  47  49 NW7       29.89S
GREENVILLE     SUNNY     68  46  45 NW8G16    29.91S
NEW BERN       SUNNY     69  46  43 NW13      29.90S
WILMINGTON     SUNNY     69  44  40 W15       29.91S
$$

VAZ048-232200-
ELSEWHERE

CITY           SKY/WX    TMP DP  RH WIND       PRES   REMARKS
HARRISBURG PA  CLOUDY    60  44  55 NW10      29.82F
BALTIMORE      PTSUNNY   62  45  53 NW10G22   29.81F
ANNAPOLIS      CLOUDY    62  46  55 NW10      29.81F
ANDREWS AFB    CLOUDY    61  45  56 NW18G25   29.84F
WILMINGTON DE  CLOUDY    57  46  66 NW16G23   29.80S
PHILADELPHIA   CLOUDY    57  44  62 N20G29    29.78R
WILDWOOD NJ*   CLOUDY    55  45  67 NW9G18    29.77R
ATLANTIC CITY  CLOUDY    53  47  79 NW15      29.74R
HENDERSON NC   SUNNY     65  42  42 NW7       29.92S
GREENSBORO     SUNNY     68  41  37 NW14      29.96S
ROCKY MOUNT    SUNNY     68  45  43 NW8       29.90S
FAYETTEVILLE   SUNNY     71  44  37 W9        29.92F
CHARLOTTE      SUNNY     69  38  32 VRB5      30.00F
$$

VAZ100-232200-
MARINE

STATION/POSITION TIME  TEMP    WIND        PRES    WAVE   SWELL
                       AIR SEA DIR/SP/G            HT/PER HT/PER
                 (UTC) (F)     (DEG/KT/KT) (MB)    (FT/S) (FT/S)
44066 TX TWR #4  2100   57 67  320/ 23/ 27 1001.5R  10/ 7
CAPE MAY NJ      2100   56 62  330/ 19/ 27 1007.4R
LEWES DE         2100   58 59  330/ 26/ 32 1007.8S
15NM E FENWICK I 2100   57 65  310/ 25/ 31 1006.8R   7/ 8
OCEAN-CITY-INLET 2100   58 62  340/ 14/ 19 1007.7S
WACHAPREAGUE VA  2100   62 60  320/  4/ 12 1009.3R
THOMAS POINT MD  2100   62 62  310/ 18/ 19 1010.4F
GOOSES REEF MD   2100   62     330/ 19/ 23 1010.0S
COVE POINT MD    2100   62     340/ 23/ 28 1009.5R
SOLOMONS ISLAND  2100      64                N/A
BISHOPS HEAD MD  2100   61 56  320/ 17/ 23 1009.0F
PINEY POINT MD   2100          340/ 21/ 24   N/A
POTOMAC MD       2100   63     340/ 21/ 27 1009.5R
CAMBRIDGE MD     2100   61 60  320/ 14/ 19 1008.8S
LEWISETTA VA     2100   63 60  320/ 13/ 16 1009.8R
RAPPAHANNOCK LGT 2100          310/ 24/ 28 1010.1R
STINGRAY PT      2100   65     320/ 17/ 21 1010.4S
YORK RVR RNG VA  2100   64     340/ 14/ 18 1009.8R
YORKTOWN VA      2100   64 65  320/ 19/ 21 1010.1R
JAMESTOWN VA     2100   66     350/ 16/ 19   N/A
DOMINION TERM VA 2100   65     320/ 13/ 18 1010.4R
KIPTOPEKE VA     2100      66  320/ 21/ 25   N/A
CHES BAY BRIDGE  2100   64 65  310/ 19/ 23 1009.7R
CAPE HENRY VA    2100   64     310/ 20/ 25 1008.9R
CHESAPEAKE LGHT  2000   62     310/ 21/ 22 1010.8R
WILLOUBY STN VA  2100   65     320/ 18/ 21 1009.1R
S CRANEY ISL VA  2100          280/  7/ 11 1010.3R
CAPE HENRY BUOY  2100      68                N/A     5/ 8
1ST LANDING BUOY 2100   65     310/ 21/ 25 1009.8S
CAPE CHARLES BUO 2100      67                N/A     4/ 8   2/ 8
64NM E OF VA BCH 2100   62 67  320/ 23/ 29 1008.5R   8/ 7
DUCK PIER NC     2100   64 66  310/ 13/ 17 1009.6S
44100 DUCK FRF   2100      69                N/A     5/ 7
44056 DUCK FRF   2100                        N/A     4/ 7
OREGON INLET NC  2100   63 64  290/ 12/ 16 1010.5R
HATTERAS NC      2100   64 63  280/ 16/ 20 1011.3S
DIAMOND SHLS NC  2100   65     290/ 17/ 21 1011.1S   5/ 6   2/ 9
CAPE LOOKOUT NC  2100   66     290/ 13/ 15 1011.9S
$$



USA.gov is the U.S. government's official web portal to all federal, state and local government web resources and services.